Total_Precipitation_Accumulation
0.28 0.22 0.18 0.17 0.14 0.16 0.15 0.15 0.11 0.16 0.36 0.32 0.50 0.61 0.65 0.65 0.72 0.81 0.62 0.50 0.52 0.49 0.45 0.44 0.32 0.26 0.23 0.18 0.17 0.16 0.13 0.15 0.11 0.03 0.03 0.02 0.09 0.08 0.05 0.05 0.06 0.03 0.01
0.31 0.26 0.24 0.19 0.15 0.15 0.16 0.16 0.11 0.08 0.17 0.19 0.30 0.50 0.53 0.69 0.67 0.77 0.79 0.62 0.55 0.61 0.54 0.47 0.47 0.46 0.40 0.24 0.20 0.15 0.13 0.10 0.11 0.08 0.01 0.02 0.03 0.06 0.06 0.05 0.05 0.04 0.06
0.35 0.34 0.34 0.40 0.27 0.27 0.26 0.20 0.16 0.10 0.10 0.09 0.16 0.22 0.28 0.44 0.72 0.75 0.79 0.66 0.61 0.62 0.65 0.60 0.49 0.46 0.47 0.34 0.21 0.15 0.11 0.10 0.07 0.08 0.04 0.04 0.04 0.06 0.08 0.06 0.05 0.07 0.04
0.36 0.35 0.33 0.39 0.34 0.27 0.29 0.21 0.15 0.09 0.05 0.05 0.05 0.12 0.20 0.29 0.51 0.70 0.72 0.76 0.61 0.59 0.65 0.62 0.60 0.51 0.37 0.34 0.29 0.22 0.20 0.21 0.18 0.13 0.12 0.07 0.05 0.05 0.09 0.08 0.07 0.10 0.13
0.37 0.30 0.37 0.29 0.37 0.31 0.27 0.15 0.10 0.05 0.03 0.02 0.03 0.04 0.14 0.25 0.38 0.48 0.59 0.69 0.74 0.65 0.56 0.66 0.65 0.69 0.67 0.50 0.37 0.34 0.31 0.31 0.26 0.24 0.18 0.13 0.10 0.10 0.12 0.12 0.15 0.12 0.13
0.44 0.45 0.30 0.36 0.22 0.20 0.18 0.09 0.10 0.05 0.03 0.03 0.06 0.08 0.09 0.12 0.31 0.32 0.54 0.85 0.85 0.85 0.77 0.67 0.82 0.88 0.84 0.87 0.61 0.45 0.44 0.43 0.34 0.29 0.27 0.25 0.16 0.15 0.15 0.17 0.20 0.15 0.15
0.52 0.67 0.48 0.56 0.35 0.14 0.08 0.07 0.07 0.12 0.09 0.07 0.07 0.07 0.05 0.05 0.25 0.23 0.38 0.57 0.94 0.89 1.02 0.95 0.86 0.84 0.82 0.74 0.76 0.60 0.52 0.47 0.45 0.36 0.36 0.31 0.31 0.29 0.37 0.48 0.56 0.56 0.50
0.19 0.28 0.48 0.53 0.39 0.24 0.16 0.11 0.11 0.13 0.15 0.15 0.14 0.14 0.15 0.19 0.20 0.21 0.36 0.31 0.45 0.65 0.74 0.83 0.90 0.87 0.88 0.81 0.69 0.72 0.69 0.67 0.67 0.66 0.76 0.90 0.91 0.85 0.93 0.95 0.96 0.97 0.98
0.18 0.19 0.23 0.32 0.37 0.27 0.23 0.21 0.22 0.18 0.16 0.15 0.17 0.19 0.19 0.19 0.26 0.19 0.19 0.14 0.29 0.49 0.61 0.76 0.92 0.96 1.26 1.17 0.85 1.03 1.19 1.19 1.25 1.08 0.87 0.85 0.76 0.68 0.61 0.55 0.64 0.71 0.82
0.35 0.30 0.24 0.30 0.36 0.40 0.35 0.29 0.26 0.25 0.22 0.16 0.14 0.12 0.24 0.14 0.29 0.24 0.22 0.10 0.23 0.36 0.47 0.56 0.83 0.78 1.04 1.06 0.95 0.92 1.09 1.27 1.17 1.14 1.05 0.88 0.68 0.55 0.52 0.41 0.41 0.41 0.39
0.72 0.61 0.52 0.45 0.45 0.49 0.55 0.56 0.53 0.47 0.41 0.33 0.30 0.21 0.16 0.18 0.23 0.28 0.35 0.26 0.34 0.35 0.38 0.42 0.58 0.83 0.81 1.01 1.13 1.05 1.17 1.09 0.96 0.73 0.63 0.55 0.49 0.38 0.30 0.30 0.29 0.29 0.30
1.15 1.04 0.97 0.86 0.78 0.71 0.68 0.71 0.64 0.61 0.58 0.53 0.45 0.33 0.26 0.27 0.38 0.35 0.32 0.31 0.38 0.28 0.35 0.29 0.31 0.28 0.29 0.34 0.41 0.61 0.59 0.51 0.42 0.39 0.37 0.35 0.29 0.24 0.23 0.21 0.20 0.19 0.17
1.44 1.37 1.38 1.27 1.16 1.05 0.95 0.90 0.80 0.73 0.65 0.63 0.59 0.58 0.56 0.47 0.47 0.47 0.40 0.35 0.29 0.19 0.28 0.43 0.42 0.32 0.29 0.28 0.29 0.29 0.28 0.25 0.26 0.27 0.28 0.28 0.25 0.21 0.11 0.07 0.07 0.08 0.07
0.93 1.00 1.15 1.19 1.15 1.12 1.03 1.02 0.97 0.93 0.92 0.90 0.79 0.75 0.72 0.65 0.58 0.51 0.48 0.47 0.44 0.38 0.38 0.32 0.26 0.21 0.19 0.26 0.31 0.31 0.28 0.24 0.20 0.18 0.18 0.18 0.15 0.10 0.06 0.03 0.02 0.02 0.01
0.51 0.58 0.59 0.61 0.67 0.70 0.69 0.68 0.64 0.74 0.66 0.61 0.63 0.59 0.54 0.57 0.63 0.51 0.44 0.40 0.38 0.38 0.32 0.25 0.19 0.16 0.14 0.14 0.12 0.11 0.11 0.11 0.11 0.11 0.09 0.08 0.06 0.05 0.04 0.03 0.03 0.02 0.02
0.31 0.34 0.41 0.44 0.44 0.46 0.50 0.54 0.53 0.51 0.43 0.40 0.40 0.36 0.39 0.42 0.35 0.28 0.24 0.21 0.19 0.16 0.12 0.14 0.15 0.12 0.11 0.11 0.10 0.10 0.08 0.06 0.05 0.03 0.03 0.03 0.03 0.02 0.01 0.01 0.01 0.01 0.01
0.03 0.04 0.07 0.11 0.16 0.20 0.23 0.25 0.33 0.37 0.35 0.37 0.38 0.38 0.36 0.36 0.32 0.30 0.28 0.25 0.23 0.17 0.17 0.18 0.18 0.16 0.15 0.12 0.11 0.09 0.08 0.07 0.05 0.03 0.03 0.04 0.04 0.04 0.03 0.03 0.03 0.02 0.02
0.00 0.00 0.00 0.01 0.01 0.01 0.01 0.02 0.03 0.05 0.06 0.07 0.07 0.10 0.12 0.13 0.13 0.13 0.13 0.11 0.13 0.13 0.15 0.17 0.18 0.16 0.15 0.14 0.12 0.10 0.08 0.07 0.05 0.04 0.04 0.04 0.04 0.03 0.02 0.01 0.01 0.00 0.00
0.00 0.00 0.01 0.01 0.01 0.01 0.01 0.00 0.00 0.01 0.01 0.01 0.01 0.00 0.00 0.00 0.00 0.00 0.00 0.00 0.00 0.01 0.00 0.01 0.01 0.01 0.01 0.01 0.01 0.01 0.00 0.01 0.00 0.00 0.00 0.00 0.01 0.00 0.00 0.00 0.00 0.00 0.00
0.00 0.00 0.00 0.01 0.01 0.01 0.00 0.00 0.00 0.00 0.00 0.00 0.00 0.00 0.00 0.00 0.00 0.00 0.00 0.00 0.01 0.01 0.00 0.00 0.00 0.00 0.00 0.00 0.00 0.00 0.00 0.00 0.00 0.00 0.00 0.00 0.00 0.00 0.00 0.00 0.00 0.00 0.00
0.01 0.00 0.00 0.00 0.00 0.00 0.00 0.00 0.00 0.00 0.00 0.00 0.00 0.00 0.00 0.00 0.00 0.00 0.00 0.00 0.00 0.01 0.01 0.00 0.00 0.00 0.00 0.00 0.00 0.00 0.00 0.00 0.00 0.00 0.00 0.00 0.00 0.00 0.00 0.00 0.00 0.00 0.00
0.00 0.00 0.00 0.00 0.00 0.00 0.00 0.00 0.00 0.00 0.00 0.00 0.00 0.00 0.00 0.00 0.00 0.00 0.00 0.00 0.01 0.00 0.01 0.00 0.00 0.00 0.00 0.00 0.00 0.00 0.00 0.00 0.00 0.00 0.00 0.00 0.00 0.00 0.00 0.00 0.00 0.00 0.00
0.00 0.00 0.00 0.00 0.00 0.00 0.00 0.00 0.00 0.00 0.00 0.00 0.00 0.00 0.00 0.00 0.00 0.00 0.01 0.01 0.01 0.01 0.00 0.00 0.00 0.00 0.00 0.01 0.00 0.01 0.00 0.00 0.01 0.00 0.00 0.00 0.00 0.00 0.00 0.00 0.00 0.00 0.00
0.00 0.00 0.00 0.00 0.00 0.00 0.01 0.01 0.01 0.01 0.01 0.02 0.02 0.01 0.01 0.01 0.01 0.01 0.01 0.00 0.01 0.01 0.00 0.01 0.00 0.00 0.00 0.00 0.00 0.01 0.00 0.00 0.00 0.00 0.00 0.00 0.00 0.00 0.00 0.00 0.00 0.00 0.00
0.00 0.00 0.00 0.01 0.01 0.01 0.01 0.02 0.01 0.01 0.01 0.01 0.01 0.01 0.02 0.01 0.00 0.01 0.00 0.00 0.00 0.00 0.00 0.01 0.00 0.00 0.00 0.00 0.00 0.00 0.00 0.00 0.00 0.00 0.00 0.00 0.00 0.00 0.00 0.00 0.00 0.00 0.00
0.00 0.00 0.00 0.00 0.01 0.01 0.01 0.01 0.01 0.01 0.01 0.01 0.01 0.01 0.01 0.01 0.01 0.01 0.00 0.00 0.00 0.00 0.00 0.00 0.00 0.00 0.00 0.01 0.00 0.00 0.00 0.00 0.00 0.00 0.00 0.00 0.01 0.01 0.00 0.00 0.00 0.00 0.00